Miscellaneous Local Product
Issued by NWS Hastings, NE

Home | Current Version | Previous Version | Graphics & Text | Print | Product List | Glossary On
Versions: 1 2 3 4 5 6 7 8 9 10 11 12 13 14 15 16 17 18 19 20 21 22 23 24 25 26 27 28 29 30 31 32 33 34 35 36 37 38 39 40 41 42 43 44 45 46 47 48 49 50
000
AXUS43 KGID 262202
MISGRI

GID CWA HOURLY WEATHER ROUNDUP
NATIONAL WEATHER SERVICE HASTINGS NE
500 PM CDT TUE AUG 26 2014

NOTE: "FAIR" INDICATES FEW OR NO CLOUDS BELOW 12,000 FEET WITH NO
SIGNIFICANT WEATHER AND/OR OBSTRUCTIONS TO VISIBILITY.

...SOUTH CENTRAL NEBRASKA...

CITY           SKY/WX    TMP DP  RH WIND       PRES   REMARKS
GRAND ISLAND   MOSUNNY   80  68  66 SE8       30.12F
HASTINGS       MOSUNNY   79  66  64 NE9       30.10F
KEARNEY        SUNNY     79  68  69 NE6       30.12F
ORD            MOSUNNY   75  63  66 SE9       30.11F
YORK           PTSUNNY   77 N/A N/A E7        30.11F
LEXINGTON      MOSUNNY   78  68  69 S8        30.11F
HOLDREGE       SUNNY     79  67  67 NE5       30.10F
HEBRON         SUNNY     86  64  47 SE6       30.06F

...NEBRASKA PANHANDLE...

CITY           SKY/WX    TMP DP  RH WIND       PRES   REMARKS
CHADRON        PTSUNNY   83  58  42 NE10      30.05F
ALLIANCE       MOSUNNY   84  56  38 S18G24    30.11F
SCOTTSBLUFF    MOSUNNY   88  53  30 SE10      30.07F
SIDNEY         PTSUNNY   77  61  57 SE15      30.16S

...WESTERN AND NORTH CENTRAL NEBRASKA...

CITY           SKY/WX    TMP DP  RH WIND       PRES   REMARKS
VALENTINE      SUNNY     80  58  46 S9        30.10F
AINSWORTH      SUNNY     77  61  57 SE9       30.11F
ONEILL         SUNNY     76  60  58 E8        30.14S
BROKEN BOW     SUNNY     79  64  60 SE14G22   30.12F
IMPERIAL       PTSUNNY   76  62  62 SE10      30.13F
NORTH PLATTE   MOSUNNY   80  61  52 SE12      30.11F
MCCOOK         SUNNY     82  65  56 E9        30.10F

...EASTERN NEBRASKA...

CITY           SKY/WX    TMP DP  RH WIND       PRES   REMARKS
NORFOLK        PTSUNNY   72  63  73 E8        30.13F
SO SIOUX CITY  PTSUNNY   73  60  63 NE7       30.14F
TEKAMAH        PTSUNNY   76  65  68 NE6       30.12F
COLUMBUS       PTSUNNY   77  66  69 E6        30.12F
ALBION         PTSUNNY   74  64  71 SE6       30.13F
OMAHA EPPLEY   PTSUNNY   77  65  66 SE5       30.12S
OFFUTT AFB     PTSUNNY   77  70  79 E6        30.12S
MILLARD        PTSUNNY   77  67  71 E5        30.11R
LINCOLN        MOSUNNY   80  67  64 NE12      30.10F
NEBRASKA CITY  MOSUNNY   78  69  72 E10       30.08F
BEATRICE       MOSUNNY   86  69  56 NE7       30.07S HX  90
FALLS CITY     MOSUNNY   86  69  56 E7        30.08F HX  90

...NORTHERN KANSAS...

CITY           SKY/WX    TMP DP  RH WIND       PRES   REMARKS
GOODLAND       MOSUNNY   84  60  44 SE14G21   30.11F
HILL CITY      SUNNY     89  61  38 SE12      30.06F
NORTON         PTCLDY    88  57  35 SE9       30.07F
PHILLIPSBURG   PTSUNNY   90  59  35 SE10G18   30.05F
SMITH CENTER   MOSUNNY   88  63  42 SE8G18    30.05F
BELOIT         MOSUNNY   90  66  45 S8        30.03F HX  92
HAYS           SUNNY     88  63  42 S12       30.06F
RUSSELL        SUNNY     87  65  47 S8        30.05F
CONCORDIA      SUNNY     86  71  60 E3        30.06F HX  91
SALINA         MOSUNNY   88  64  44 SE13      30.05F
TOPEKA         SUNNY     92  72  51 NE10      30.03F HX  99



USA.gov is the U.S. government's official web portal to all federal, state and local government web resources and services.